Regional Weather Roundup
Issued by NWS

Home | Current Version | Previous Version | Text Only | Print | Product List | Glossary On
Versions: 1 2 3 4 5 6 7 8 9 10 11 12 13 14 15 16 17 18 19 20 21 22 23 24 25 26 27 28 29 30 31 32 33 34 35 36 37 38 39 40 41 42 43 44 45 46 47 48 49 50
000
ASUS44 KJAN 261420
RWRMS

MISSISSIPPI HOURLY WEATHER ROUNDUP
NATIONAL WEATHER SERVICE JACKSON MS
900 AM CDT MON SEP 26 2016

NOTE: "FAIR: INDICATES FEW OR NO CLOUDS BELOW 12,000 FEET WITH NO
SIGNIFICANT WEATHER AND/OR OBSTRUCTIONS TO VISIBILITY.

MSZ001>002-007>008-010>013-018>021-025>028-034>036-261500-
NORTHWEST MISSISSIPPI

CITY           SKY/WX    TMP DP  RH WIND       PRES   REMARKS
BATESVILLE     CLOUDY    75  68  78 N6        30.07R
CLARKSDALE     MOSUNNY   70  66  88 N14G23    30.11R
CLEVELAND      CLOUDY    74  70  89 N15       30.07R
GREENWOOD      CLOUDY    77  69  76 N13       30.04R
GREENVILLE     CLOUDY    74  67  78 N15       30.07R
OLIVE BRANCH   PTSUNNY  N/A N/A N/A N20G28    30.10R
OXFORD         CLOUDY    73  66  78 N10G18    30.08S
TUNICA         CLOUDY    70  59  68 N18G25    30.12R
WINONA         FAIR      77  68  73 NW6       30.04R
$$

MSZ003>006-009-014>017-022>024-029>033-037>039-261500-
NORTHEAST MISSISSIPPI

CITY           SKY/WX    TMP DP  RH WIND       PRES   REMARKS
COLUMBUS AFB   PTSUNNY   75  68  78 CALM      30.02R
CORINTH        CLOUDY    73  68  83 N8        30.06R
STARKVILLE     FAIR      79  68  69 N3        30.04S
TUPELO         SUNNY     76  64  66 N13       30.04R
$$

MSZ040-058-261500-
CENTRAL MISSISSIPPI

CITY           SKY/WX    TMP DP  RH WIND       PRES   REMARKS
JACKSON INTL   SUNNY     79  70  74 CALM      30.04R
JACKSON HAWKNS SUNNY     78  70  76 NW5       30.04R
MADISON        FAIR      79  68  69 NW3       30.04S
MERIDIAN KEY   SUNNY     79  70  74 CALM      30.02F
MERIDIAN NAS   SUNNY     79  66  64 CALM      30.02F
VICKSBURG VKS  SUNNY     73  72  94 NW3       30.03R
$$

MSZ059>079-261500-
SOUTH MISSISSIPPI

CITY           SKY/WX    TMP DP  RH WIND       PRES   REMARKS
BROOKHAVEN     FAIR     N/A N/A N/A CALM      30.05S
HATTIESBURG    SUNNY     78  70  76 CALM      30.04S
LAUREL         FAIR      73  73 100 W3        30.04S
MCCOMB         SUNNY     78  71  79 NW5       30.04S
NATCHEZ        SUNNY     79  70  73 N3        30.04R
PINE BELT      SUNNY     75  70  83 CALM      30.04S
$$

MSZ080>082-261500-
COASTAL MISSISSIPPI

CITY           SKY/WX    TMP DP  RH WIND       PRES   REMARKS
BAY ST LOUIS   SUNNY     79  68  69 CALM      30.02F
BILOXI         SUNNY     81  73  76 N5        30.01S
PASCAGOULA     SUNNY     80  74  81 CALM      30.01F
GULFPORT       SUNNY     81  71  71 CALM      30.01S
$$

LAZ007>009-015>016-023>026-261500-
NORTHEAST LOUISIANA

CITY           SKY/WX    TMP DP  RH WIND       PRES   REMARKS
BASTROP        FAIR      75  73  91 N5        30.07R
TALLULAH/VBURG SUNNY     79  72  79 N7        30.05R
$$



USA.gov is the U.S. government's official web portal to all federal, state and local government web resources and services.